Location: Camp Crooked Creek
(37.9149°N, 85.6607°W)
Time: 10:11:42
(UTC-04:00)

Lacrosse 4 - Visible Passes

Search period start: 27 May 2016 00:00
Search period end: 06 June 2016 00:00
Orbit: 673 x 680 km, 68.0° (Epoch: 25 February)

Date Brightness Start Highest point End Pass type
(mag) Time Alt. Az. Time Alt. Az. Time Alt. Az.
27 May 3.4 00:20:36 10° N 00:24:32 25° NE 00:24:34 25° NE visible
27 May 3.7 02:00:59 10° NW 02:02:50 21° WNW 02:02:50 21° WNW visible
28 May 2.6 00:55:11 10° NNW 00:58:45 48° N 00:58:45 48° N visible
28 May 3.3 23:50:20 10° N 23:54:14 24° NE 23:54:42 24° ENE visible
29 May 3.5 01:30:40 10° NW 01:32:59 25° WNW 01:32:59 25° WNW visible
30 May 2.2 00:24:54 10° NNW 00:28:57 58° NNE 00:28:57 58° NNE visible
30 May 3.3 23:20:06 10° N 23:23:55 23° NE 23:24:58 22° ENE visible
31 May 3.2 01:00:20 10° NW 01:03:15 30° WNW 01:03:15 30° WNW visible
31 May 1.8 23:54:36 10° NNW 23:59:18 65° NE 23:59:18 65° NE visible
01 Jun 3.4 22:49:50 10° N 22:53:36 22° NE 22:55:23 18° E visible
02 Jun 2.8 00:30:01 10° NW 00:33:41 36° W 00:33:41 36° W visible
02 Jun 1.8 23:24:19 10° NNW 23:29:05 63° ENE 23:29:48 55° ESE visible
03 Jun 4.2 01:07:13 10° WNW 01:08:05 12° W 01:08:05 12° W visible
03 Jun 3.4 22:19:34 10° N 22:23:17 22° NE 22:25:57 14° E visible
03 Jun 2.5 23:59:41 10° NW 00:04:10 41° WSW 00:04:15 41° WSW visible
04 Jun 1.9 22:54:01 10° NNW 22:58:47 60° ENE 23:00:26 38° SE visible
05 Jun 4.1 00:36:45 10° WNW 00:38:44 13° W 00:38:44 13° W visible
05 Jun 3.4 21:49:19 10° N 21:52:57 21° NE 21:56:35 10° ESE visible
05 Jun 2.5 23:29:22 10° NW 23:33:53 43° WSW 23:34:58 37° SW visible
